Tracking 23752 objects as of 24-Oct-2021
HD Live streaming from Space Station
objects crossing your sky now

SL-12 R/B(2)

Track SL-12 R/B(2) now!


NORAD ID: 17125
Int'l Code: 1986-090D
Perigee: 35,762.2 km
Apogee: 35,860.0 km
Inclination: 12.9 °
Period: 1,437.0 minutes
Semi major axis: 42182 km
RCS: 1.5849 m2 (large)
Launch date: November 18, 1986
Source: Commonwealth of Independent States (former USSR) (CIS)
Launch site: TYURATAM MISSILE AND SPACE COMPLEX (TTMTR)

Note: This is a ROCKET BODY
aabbcc
Your satellite tracking list
Your tracking list is empty




NASA's NSSDC Master Catalog

Two Line Element Set (TLE):
1 17125U 86090D   21296.74750385  .00000134  00000-0  00000+0 0  9995
2 17125  12.9193 335.4494 0011592 130.3004 229.7646  1.00209986127881
Source of the keplerian elements: AFSPC